Location: Holcomb Observatory
(44.4922°N, 73.1654°W)
Time: 09:23:19
(UTC-05:00)

Cosmos 2360 Rocket - Visible Passes

Search period start: 28 November 2014 00:00
Search period end: 08 December 2014 00:00
Orbit: 834 x 846 km, 71.0° (Epoch: 28 November)

Date Brightness Start Highest point End Pass type
(mag) Time Alt. Az. Time Alt. Az. Time Alt. Az.
28 Nov 3.7 17:17:09 10° N 17:20:25 15° NE 17:21:41 14° ENE visible
28 Nov 2.9 18:59:46 10° NNW 19:03:30 43° NNW 19:03:30 43° NNW visible
29 Nov 3.8 17:01:40 10° N 17:04:46 15° NE 17:07:16 11° ENE visible
29 Nov 2.2 18:44:11 10° NNW 18:49:07 64° NNE 18:49:07 64° NNE visible
29 Nov 4.9 20:29:39 10° WNW 20:30:57 14° WNW 20:30:57 14° WNW visible
30 Nov 3.8 16:46:12 10° N 16:49:06 14° NE 16:51:59 10° ENE visible
30 Nov 2.0 18:28:35 10° NNW 18:34:14 68° ENE 18:35:02 60° ESE visible
30 Nov 4.6 20:13:54 10° WNW 20:16:55 18° W 20:16:55 18° W visible
01 Dec 2.1 18:13:00 10° NNW 18:18:37 64° ENE 18:21:32 29° SE visible
01 Dec 4.5 19:58:10 10° NW 20:02:04 20° W 20:03:28 18° WSW visible
02 Dec 2.1 17:57:25 10° NNW 18:03:01 61° ENE 18:08:33 10° SE visible
02 Dec 4.4 19:42:26 10° NW 19:46:30 21° W 19:50:33 10° SSW visible
03 Dec 2.2 17:41:51 10° NNW 17:47:25 57° ENE 17:52:55 10° SE visible
03 Dec 4.4 19:26:44 10° NW 19:30:57 22° W 19:35:09 10° SSW visible
04 Dec 2.3 17:26:16 10° NNW 17:31:48 54° ENE 17:37:17 10° SE visible
04 Dec 4.3 19:11:02 10° NW 19:15:24 24° WSW 19:19:44 10° SSW visible
05 Dec 5.5 06:39:39 10° ESE 06:41:09 11° E 06:42:40 10° E visible
05 Dec 2.3 17:10:41 10° NNW 17:16:11 51° ENE 17:21:38 10° SE visible
05 Dec 4.3 18:55:21 10° NW 18:59:50 25° WSW 19:04:18 10° SSW visible
06 Dec 5.7 06:25:00 10° E 06:25:37 10° E 06:26:13 10° E visible
06 Dec 2.4 16:55:07 10° NNW 17:00:34 48° ENE 17:05:58 10° SE visible
06 Dec 4.3 18:39:40 10° NW 18:44:16 27° WSW 18:48:51 10° SSW visible
07 Dec 2.5 16:39:32 10° NNW 16:44:57 46° ENE 16:50:19 10° SE visible
07 Dec 4.2 18:23:59 10° NW 18:28:43 28° WSW 18:33:24 10° SSW visible
